Location: Arboyeti
(42.1122°N, 44.6017°E)
Time: 05:26:09
(UTC+00:00)

COSMOS 2455 - Pass Details

Date: 19 April 2021
Orbit: 902 x 907 km, 67.1° (Epoch: 09 May)

Event Time Altitude Azimuth Distance (km) Brightness Sun altitude
Exits shadow 17:54:43 25° 78° (ENE) 1,728 4.0 -21.6°
Drops below altitude 10° 17:58:01 10° 49° (NE) 2,595 5.1 -22.0°
Sets 18:00:48 0° 40° (NE) 3,541 6.0 -22.4°
